Date,TemperatureHighF,TemperatureAvgF,TemperatureLowF,DewpointHighF,DewpointAvgF,DewpointLowF,HumidityHigh,HumidityAvg,HumidityLow,PressureMaxIn,PressureMinIn,WindSpeedMaxMPH,WindSpeedAvgMPH,GustSpeedMaxMPH,PrecipitationSumIn
2012-1-1,38,23,15,19,13,8,83,65,30,30.49,30.36,10,5,0,0.00
2012-1-2,60,43,25,26,21,17,87,47,20,30.39,30.03,14,9,0,0.00
2012-1-3,49,44,38,20,17,14,45,33,26,30.21,30.02,26,14,0,0.00
2012-1-4,61,52,44,24,21,16,37,30,22,30.21,30.07,19,8,0,0.00
2012-1-5,56,45,27,22,17,8,52,33,24,30.03,29.91,26,14,0,0.00
2012-1-6,37,29,23,13,11,6,63,48,27,30.13,30.02,15,8,0,0.00
2012-1-7,35,24,15,17,12,9,78,61,35,30.16,30.03,13,6,0,0.00
2012-1-8,45,34,23,27,22,13,67,59,46,30.13,30.06,12,8,0,0.00
2012-1-9,56,46,37,27,24,20,65,44,25,30.16,30.04,21,13,0,0.00
2012-1-10,45,33,12,32,22,7,100,69,42,30.33,29.87,22,13,0,0.00
2012-1-11,20,12,3,9,1,-5,87,62,43,30.36,30.17,20,9,0,0.00
2012-1-12,32,27,19,18,12,6,68,54,44,30.20,30.00,21,9,0,0.00
2012-1-13,38,30,21,21,16,12,76,58,34,30.08,29.92,26,9,0,0.00
2012-1-14,47,36,21,25,17,10,67,48,30,30.05,29.68,10,5,0,0.00
2012-1-15,32,17,2,23,11,0,91,76,44,29.98,29.64,22,12,0,0.00
2012-1-16,5,-1,-9,-1,-4,-12,91,86,76,30.00,29.94,6,4,0,0.00
2012-1-17,25,9,-9,11,-2,-12,88,65,39,30.01,29.67,21,11,0,0.00
2012-1-18,-12,-17,-20,-16,-21,-25,82,79,77,29.87,29.76,11,5,0,0.00
2012-1-19,-3,-9,-16,-7,-13,-21,85,83,79,29.81,29.66,7,4,0,0.00
2012-1-20,38,9,-9,28,4,-13,92,82,62,29.85,29.62,17,6,0,0.00
2012-1-21,44,38,32,33,30,22,84,72,57,29.55,29.33,16,10,0,0.00
2012-1-22,34,27,18,18,13,7,64,57,41,29.87,29.60,20,11,0,0.00
2012-1-23,36,29,9,24,18,2,72,62,50,29.96,29.77,17,9,0,0.00
2012-1-24,36,26,7,16,9,1,74,50,30,30.08,29.80,23,11,0,0.00
2012-1-25,43,38,29,29,22,14,68,53,37,30.02,29.68,38,23,0,0.00
2012-1-26,43,35,26,28,22,15,95,60,46,30.03,29.73,27,13,0,0.00
2012-1-27,28,24,20,24,11,3,99,59,34,30.25,30.05,18,14,0,0.00
2012-1-28,40,29,20,26,14,6,71,52,43,30.19,29.98,20,10,0,0.00
2012-1-29,50,45,41,31,28,24,66,51,36,29.96,29.72,30,17,0,0.00
2012-1-30,47,40,34,27,24,20,63,52,41,29.86,29.65,24,12,0,0.00
2012-1-31,45,36,29,22,19,14,67,52,30,30.05,29.90,15,10,0,0.00
2012-2-1,44,35,28,25,18,13,71,50,28,30.05,29.96,11,6,0,0.00
2012-2-2,35,30,25,30,25,20,95,81,62,30.39,30.10,18,11,0,0.00
2012-2-3,35,26,18,25,19,14,90,76,54,30.44,30.36,17,10,0,0.00
2012-2-4,44,30,18,22,18,13,84,63,39,30.36,30.26,14,9,0,0.00
2012-2-5,46,32,24,17,13,5,68,47,20,30.25,30.20,8,5,0,0.00
2012-2-6,28,24,20,26,23,20,100,97,89,30.43,30.27,11,7,0,0.00
2012-2-7,22,18,9,20,14,6,98,87,76,30.41,30.21,16,10,0,0.00
2012-2-8,36,22,4,22,14,1,90,70,53,30.18,30.08,10,6,0,0.00
2012-2-9,40,33,25,29,20,14,78,61,37,30.27,30.11,17,10,0,0.00
2012-2-10,22,14,6,14,11,4,95,87,69,30.32,30.25,10,6,0,0.00
2012-2-11,23,15,4,15,9,1,90,77,58,30.30,29.99,25,17,0,0.00
2012-2-12,44,30,13,29,21,10,94,72,44,29.97,29.79,15,6,0,0.00
2012-2-13,41,34,30,25,22,19,75,62,41,29.81,29.78,15,8,0,0.00
2012-2-14,33,26,16,24,19,13,96,74,54,29.89,29.75,22,12,0,0.00
2012-2-15,34,24,15,17,13,11,85,65,39,30.10,29.90,18,9,0,0.00
2012-2-16,40,31,20,23,11,5,72,46,24,30.10,30.03,18,8,0,0.00
2012-2-17,40,32,22,27,21,16,97,67,39,30.16,30.02,15,7,0,0.00
2012-2-18,43,34,20,23,18,12,85,54,30,29.96,29.84,13,8,0,0.00
2012-2-19,39,29,19,15,11,8,71,50,28,29.88,29.78,13,9,0,0.00
2012-2-20,32,27,22,25,17,10,100,65,44,29.89,29.83,18,9,0,0.00
2012-2-21,47,35,19,33,23,17,92,63,33,29.82,29.67,26,12,0,0.00
2012-2-22,46,36,26,34,29,20,100,76,34,29.76,29.40,33,15,0,0.00
2012-2-23,30,24,17,25,19,14,99,82,56,30.04,29.81,20,14,0,0.00
2012-2-24,31,26,20,22,18,12,90,69,53,30.16,29.83,18,8,0,0.00
2012-2-25,40,30,16,30,23,14,98,76,53,29.82,29.47,27,16,0,0.00
2012-2-26,18,14,11,14,10,7,89,80,64,30.09,29.87,24,11,0,0.00
2012-2-27,35,20,12,19,13,7,94,74,41,30.07,29.92,15,5,0,0.00
2012-2-28,36,23,13,23,13,7,86,67,36,29.88,29.81,7,4,0,0.00
2012-2-29,41,30,22,26,16,11,85,57,41,29.79,29.58,22,10,0,0.00
2012-3-1,32,25,17,23,13,7,97,64,35,29.95,29.69,19,12,0,0.00
2012-3-2,31,24,14,17,14,8,95,70,38,30.06,29.98,18,11,0,0.00
2012-3-3,47,38,26,28,23,15,69,56,44,29.99,29.84,29,19,0,0.00
2012-3-4,54,42,28,29,24,16,97,54,29,30.09,29.90,22,11,0,0.00
2012-3-5,57,47,38,25,22,19,54,37,23,29.87,29.55,19,10,0,0.00
2012-3-6,37,26,15,32,21,12,98,80,65,29.99,29.54,24,15,0,0.00
2012-3-7,36,25,12,16,11,6,89,59,33,30.23,29.91,24,11,0,0.00
2012-3-8,54,39,26,17,15,12,60,39,19,30.31,30.24,14,8,0,0.00
2012-3-9,62,51,42,15,13,9,30,22,12,30.24,30.00,16,9,0,0.00
2012-3-10,65,50,36,22,13,7,54,25,11,29.98,29.78,11,9,0,0.00
2012-3-11,62,46,29,32,21,15,79,43,16,29.81,29.53,20,10,0,0.00
2012-3-12,51,39,28,25,18,7,76,45,24,29.89,29.68,16,8,0,0.00
2012-3-13,60,46,31,28,21,15,85,42,20,29.81,29.46,31,16,0,0.00
2012-3-14,43,35,28,33,24,10,95,67,39,29.94,29.82,21,9,0,0.00
2012-3-15,62,47,34,33,31,29,91,58,28,29.97,29.80,14,9,0,0.00
2012-3-16,56,45,37,36,31,26,72,59,42,29.78,29.65,27,9,0,0.00
2012-3-17,60,45,32,37,32,27,91,63,35,29.76,29.47,24,14,0,0.00
2012-3-18,50,38,30,37,32,27,100,82,45,29.59,29.45,20,7,0,0.00
2012-3-19,29,27,23,29,26,15,100,94,66,29.74,29.45,35,22,0,0.00
2012-3-20,39,32,16,26,20,6,71,61,45,29.81,29.74,18,10,0,0.00
2012-3-21,44,35,23,32,27,20,95,74,57,29.96,29.82,9,4,0,0.00
2012-3-22,64,47,34,37,31,23,87,57,21,29.99,29.85,17,10,0,0.00
2012-3-23,43,34,29,33,30,26,100,87,67,30.14,29.94,21,7,0,0.00
2012-3-24,45,33,28,39,31,28,100,94,70,30.20,30.10,19,9,0,0.00
2012-3-25,57,42,31,38,34,31,100,77,45,30.10,29.82,19,8,0,0.00
2012-3-26,58,42,32,40,35,29,100,80,49,29.80,29.60,19,9,0,0.00
2012-3-27,55,44,33,36,24,14,100,51,20,29.95,29.81,21,9,0,0.00
2012-3-28,59,47,37,34,29,25,79,53,28,29.93,29.77,25,11,0,0.00
2012-3-29,55,44,32,29,23,17,82,47,26,29.93,29.76,16,9,0,0.00
2012-3-30,64,53,43,37,29,26,77,42,26,29.77,29.63,24,14,0,0.00
2012-3-31,69,52,35,44,38,33,97,65,26,29.78,29.56,16,7,0,0.00
2012-4-1,52,46,38,39,26,11,88,49,19,29.93,29.47,22,14,0,0.00
2012-4-2,48,38,28,18,13,7,63,39,20,30.23,29.98,16,7,0,0.00
2012-4-3,60,42,26,22,17,13,61,39,18,30.21,29.91,23,11,0,0.00
2012-4-4,68,54,38,29,21,14,54,31,12,29.89,29.65,22,12,0,0.00
2012-4-5,38,33,29,32,28,15,100,83,47,30.01,29.89,12,5,0,0.00
2012-4-6,32,29,23,31,28,23,100,99,93,30.16,29.92,17,10,0,0.00
2012-4-7,43,30,20,23,19,15,99,65,31,30.28,30.16,10,7,0,0.00
2012-4-8,43,33,19,25,19,13,79,59,31,30.38,30.27,9,6,0,0.00
2012-4-9,48,37,27,30,25,20,85,63,39,30.33,30.19,19,10,0,0.00
2012-4-10,56,44,31,28,25,23,79,50,27,30.18,30.03,22,13,0,0.00
2012-4-11,67,55,41,36,29,22,54,39,24,30.02,29.66,26,16,0,0.00
2012-4-12,50,44,37,42,37,28,96,78,51,29.77,29.56,22,11,0,0.00
2012-4-13,57,45,35,28,23,15,74,46,19,29.83,29.76,10,6,0,0.00
2012-4-14,56,43,28,30,20,-100,85,49,18,29.92,29.80,14,7,0,0.00
2012-4-15,37,30,26,32,28,25,100,95,77,30.12,29.94,15,11,0,0.00
2012-4-16,53,40,25,36,27,21,99,65,30,30.11,29.99,15,5,0,0.00
2012-4-17,55,45,35,36,28,19,87,56,25,30.08,29.99,19,9,0,0.00
2012-4-18,48,41,34,39,35,31,100,81,60,30.05,29.94,16,8,0,0.00
2012-4-19,52,41,31,35,29,22,96,65,31,30.12,29.99,21,9,0,0.00
2012-4-20,65,51,34,36,32,24,76,50,27,30.10,29.96,23,13,0,0.00
2012-4-21,57,49,41,39,32,22,89,57,32,30.24,30.10,13,6,0,0.00
2012-4-22,75,57,41,39,35,28,81,49,18,30.22,30.10,8,5,0,0.00
2012-4-23,80,64,49,50,36,26,69,39,14,30.10,29.95,14,8,0,0.00
2012-4-24,76,66,55,43,37,31,61,37,21,29.94,29.84,21,11,0,0.00
2012-4-25,70,60,43,51,37,25,71,46,20,30.00,29.91,8,6,0,0.00
2012-4-26,72,60,49,46,43,40,91,55,33,29.94,29.60,20,12,0,0.00
2012-4-27,49,40,34,48,37,31,99,88,71,29.95,29.67,29,20,0,0.00
2012-4-28,41,35,32,35,31,-100,100,93,73,30.07,29.96,26,18,0,0.00
2012-4-29,54,44,35,35,34,30,98,69,41,30.04,29.96,21,13,0,0.00
2012-4-30,57,46,39,41,34,28,97,64,38,29.95,29.67,13,8,0,0.00
2012-5-1,52,44,32,36,25,17,79,51,24,29.81,29.70,23,10,0,0.00
2012-5-2,50,40,27,30,23,17,78,52,30,29.98,29.79,11,6,0,0.00
2012-5-3,55,44,29,42,28,18,98,56,30,29.98,29.86,22,11,0,0.00
2012-5-4,59,49,37,41,35,28,99,64,31,29.98,29.90,9,7,0,0.00
2012-5-5,51,42,37,43,27,-100,98,64,28,30.18,30.01,19,14,0,0.00
2012-5-6,52,43,36,27,24,19,68,48,28,30.34,30.17,31,19,0,0.00
2012-5-7,59,46,27,30,25,22,87,47,25,30.35,30.26,14,7,0,0.00
2012-5-8,72,55,36,38,32,29,77,46,21,30.26,30.03,16,8,0,0.00
2012-5-9,77,64,49,37,30,22,56,31,13,30.02,29.82,15,8,0,0.00
2012-5-10,55,42,31,39,28,11,98,64,22,30.19,29.90,24,10,0,0.00
2012-5-11,59,43,25,27,18,11,82,43,16,30.28,30.19,7,5,0,0.00
2012-5-12,67,48,30,27,18,-100,71,38,14,30.33,30.23,7,5,0,0.00
2012-5-13,74,59,39,34,25,12,58,31,12,30.27,30.18,8,6,0,0.00
2012-5-14,72,60,43,35,28,22,51,32,16,30.26,30.18,12,8,0,0.00
2012-5-15,78,65,47,40,33,28,61,32,20,30.24,30.00,22,14,0,0.00
2012-5-16,80,66,51,41,34,24,54,33,14,30.00,29.86,12,7,0,0.00
2012-5-17,61,56,50,52,41,31,99,61,34,29.96,29.85,13,7,0,0.00
2012-5-18,54,48,38,48,43,36,100,85,63,30.09,29.85,16,9,0,0.00
2012-5-19,59,45,32,43,32,-100,96,70,33,30.19,30.09,13,7,0,0.00
2012-5-20,68,54,37,46,39,34,94,63,29,30.20,30.10,17,6,0,0.00
2012-5-21,75,60,47,55,46,39,92,65,30,30.13,29.92,14,7,0,0.00
2012-5-22,60,55,47,52,41,26,98,62,31,29.88,29.75,19,10,0,0.00
2012-5-23,58,48,40,37,30,27,79,52,31,29.82,29.73,25,14,0,0.00
2012-5-24,49,41,36,36,35,33,95,80,62,30.01,29.81,16,11,0,0.00
2012-5-25,46,39,29,37,32,27,100,79,47,30.08,30.02,14,8,0,0.00
2012-5-26,38,35,32,36,34,32,100,99,91,30.06,29.93,12,9,0,0.00
2012-5-27,38,34,32,35,33,32,100,98,83,29.94,29.83,24,17,0,0.00
2012-5-28,46,40,33,37,34,31,97,81,62,30.14,29.94,27,18,0,0.00
2012-5-29,59,48,29,49,40,29,97,74,50,30.13,30.00,21,10,0,0.00
2012-5-30,60,50,34,40,31,26,83,51,30,30.18,30.03,19,12,0,0.00
2012-5-31,62,53,41,49,40,34,80,62,39,30.19,30.03,13,8,0,0.00
2012-6-1,66,57,43,51,44,40,89,63,39,30.08,30.00,14,7,0,0.00
2012-6-2,73,58,50,55,46,-100,89,70,50,29.99,29.77,19,8,0,0.00
2012-6-3,68,57,41,51,40,34,83,57,39,30.06,29.91,10,4,0,0.00
2012-6-4,77,63,47,59,52,45,93,68,48,30.06,29.79,15,7,0,0.00
2012-6-5,74,66,58,60,54,45,93,68,42,29.78,29.62,21,11,0,0.00
2012-6-6,61,54,43,52,35,29,86,52,30,30.14,29.73,19,11,0,0.00
2012-6-7,68,55,37,44,37,32,93,56,27,30.18,30.01,16,8,0,0.00
2012-6-8,66,57,49,50,45,36,87,66,39,29.99,29.80,18,9,0,0.00
2012-6-9,54,48,39,45,39,32,96,73,50,29.91,29.78,16,7,0,0.00
2012-6-10,49,46,40,44,37,29,88,72,51,30.09,29.82,32,19,0,0.00
2012-6-11,66,56,48,48,43,40,84,64,41,30.23,30.11,16,8,0,0.00
2012-6-12,73,60,44,52,43,37,84,58,28,30.19,29.99,9,6,0,0.00
2012-6-13,66,57,48,49,41,31,91,60,30,29.97,29.87,22,12,0,0.00
2012-6-14,66,56,45,47,39,36,83,55,34,30.05,29.96,16,7,0,0.00
2012-6-15,67,56,47,43,38,29,84,54,24,30.25,30.00,15,8,0,0.00
2012-6-16,78,56,41,43,31,-100,88,50,13,30.25,29.95,15,7,0,0.00
2012-6-17,66,63,60,45,37,33,58,39,30,29.93,29.84,17,10,0,0.00
2012-6-18,67,57,43,43,36,30,83,48,26,29.88,29.72,17,8,0,0.00
2012-6-19,60,52,41,43,39,35,89,63,46,30.01,29.87,20,12,0,0.00
2012-6-20,63,55,46,47,43,40,91,67,43,30.23,30.12,19,14,0,0.00
2012-6-21,75,61,42,47,42,38,88,56,29,30.23,30.07,15,8,0,0.00
2012-6-22,74,62,43,53,48,42,96,64,41,30.10,29.87,16,9,0,0.00
2012-6-23,77,66,47,57,54,47,98,68,48,29.98,29.91,19,12,0,0.00
2012-6-24,88,71,57,66,60,51,99,72,28,30.04,29.95,18,10,0,0.00
2012-6-25,81,69,54,69,63,54,97,81,60,30.04,29.84,12,6,0,0.00
2012-6-26,89,70,52,65,44,17,99,53,7,29.93,29.67,24,12,0,0.00
2012-6-27,72,60,46,36,27,17,61,32,13,30.12,29.93,15,9,0,0.00
2012-6-28,81,64,44,47,35,26,59,38,17,30.14,30.05,10,6,0,0.00
2012-6-29,86,69,49,48,41,31,76,40,16,30.10,30.02,17,8,0,0.00
2012-6-30,83,73,52,51,45,43,72,39,26,30.14,30.00,10,6,0,0.00
2012-7-1,80,69,56,56,48,42,96,50,31,30.14,29.92,17,11,0,0.00
2012-7-2,77,67,54,58,51,44,89,60,36,30.11,29.97,10,5,0,0.00
2012-7-3,84,71,58,56,47,32,93,46,28,29.98,29.79,20,10,0,0.00
2012-7-4,78,64,45,37,30,23,69,32,13,30.08,30.00,15,6,0,0.00
2012-7-5,68,60,48,50,41,32,64,50,34,30.12,30.08,12,6,0,0.00
2012-7-6,84,69,51,52,43,34,79,45,17,30.32,30.11,15,6,0,0.00
2012-7-7,87,70,55,49,44,30,75,44,13,30.32,30.24,10,5,0,0.00
2012-7-8,86,74,56,47,44,34,68,38,18,30.30,30.25,11,6,0,0.00
2012-7-9,91,75,56,48,38,27,68,34,10,30.27,30.19,8,6,0,0.00
2012-7-10,90,77,62,46,39,34,46,28,14,30.20,30.08,13,6,0,0.00
2012-7-11,88,74,54,48,39,29,62,34,12,30.17,30.10,10,6,0,0.00
2012-7-12,92,76,55,47,41,31,73,36,12,30.16,30.06,9,6,0,0.00
2012-7-13,87,77,68,51,43,37,45,30,19,30.15,30.09,11,6,0,0.00
2012-7-14,78,70,63,61,58,52,82,64,53,30.15,30.00,10,5,0,0.00
2012-7-15,83,69,60,60,54,43,97,62,25,30.04,29.91,13,6,0,0.00
2012-7-16,77,63,52,55,51,48,87,67,40,30.09,30.05,8,4,0,0.00
2012-7-17,83,75,65,58,53,47,78,49,29,30.05,29.95,14,7,0,0.00
2012-7-18,94,78,56,56,39,26,84,33,9,30.05,29.98,9,6,0,0.00
2012-7-19,91,78,58,44,39,35,52,28,14,30.19,30.10,6,5,0,0.00
2012-7-20,88,73,62,59,46,36,90,43,22,30.25,30.12,15,8,0,0.00
2012-7-21,89,73,58,60,52,34,94,54,14,30.20,30.09,11,5,0,0.00
2012-7-22,90,74,53,48,40,32,65,36,13,30.23,30.10,15,7,0,0.00
2012-7-23,91,75,57,59,46,36,86,43,15,30.15,29.98,15,8,0,0.00
2012-7-24,86,70,53,50,36,23,80,37,10,30.11,29.97,16,8,0,0.00
2012-7-25,79,65,48,45,42,40,75,46,25,30.17,30.09,16,7,0,0.00
2012-7-26,82,64,49,58,48,43,84,62,26,30.22,30.11,13,5,0,0.00
2012-7-27,85,70,52,55,48,41,87,51,22,30.15,30.05,18,6,0,0.00
2012-7-28,93,76,56,45,38,27,63,30,10,30.16,30.04,14,7,0,0.00
2012-7-29,87,74,57,48,41,35,59,34,16,30.20,30.12,11,6,0,0.00
2012-7-30,90,76,57,45,41,32,59,32,13,30.17,30.02,13,7,0,0.00
2012-7-31,86,74,59,41,37,34,47,28,16,30.17,30.07,9,6,0,0.00
2012-8-1,81,70,55,52,39,27,72,36,14,30.18,30.08,9,6,0,0.00
2012-8-2,80,66,57,50,37,21,70,38,11,30.12,30.00,18,9,0,0.00
2012-8-3,65,55,47,51,43,37,99,67,36,30.22,30.12,17,12,0,0.00
2012-8-4,76,62,43,46,41,37,92,53,25,30.26,30.20,6,4,0,0.00
2012-8-5,90,74,52,44,34,28,63,28,12,30.21,30.12,7,5,0,0.00
2012-8-6,90,77,60,44,37,32,47,27,13,30.22,30.16,14,6,0,0.00
2012-8-7,90,74,56,48,35,23,66,30,9,30.23,30.17,16,9,0,0.00
2012-8-8,92,74,55,41,34,29,39,25,12,30.25,30.12,21,10,0,0.00
2012-8-9,87,81,67,42,39,34,39,23,16,30.21,30.16,8,5,0,0.00
2012-8-10,83,72,61,49,44,38,53,38,20,30.17,30.02,12,8,0,0.00
2012-8-11,79,67,57,56,46,-100,94,56,32,30.21,30.03,12,7,0,0.00
2012-8-12,81,68,54,52,49,46,85,55,29,30.27,30.16,11,6,0,0.00
2012-8-13,84,71,59,51,45,32,67,43,15,30.19,30.06,14,9,0,0.00
2012-8-14,88,74,58,52,36,26,70,32,11,30.08,29.88,29,12,0,0.00
2012-8-15,59,52,46,53,46,39,99,81,57,30.33,30.10,25,12,0,0.00
2012-8-16,73,57,40,43,40,37,100,57,27,30.33,30.15,18,8,0,0.00
2012-8-17,79,63,44,43,32,24,77,39,13,30.25,30.17,11,6,0,0.00
2012-8-18,81,65,46,36,30,24,61,32,13,30.28,30.17,8,5,0,0.00
2012-8-19,85,71,52,35,30,26,45,25,12,30.18,30.06,18,8,0,0.00
2012-8-20,87,70,55,36,31,26,47,28,11,30.11,30.06,8,6,0,0.00
2012-8-21,88,75,59,51,33,28,65,25,13,30.11,29.94,21,8,0,0.00
2012-8-22,82,70,59,53,39,28,77,37,15,30.07,30.00,14,8,0,0.00
2012-8-23,86,69,51,35,30,21,51,26,9,30.05,29.90,9,6,0,0.00
2012-8-24,74,61,45,35,24,6,68,29,7,30.14,29.93,25,13,0,0.00
2012-8-25,72,55,37,33,25,15,75,37,11,30.13,30.04,11,6,0,0.00
2012-8-26,78,62,40,30,26,24,56,29,14,30.17,30.09,24,12,0,0.00
2012-8-27,89,75,56,42,38,32,53,29,15,30.14,30.09,11,6,0,0.00
2012-8-28,96,79,56,46,32,18,60,24,6,30.18,29.94,11,7,0,0.00
2012-8-29,81,68,51,31,27,21,37,22,13,30.11,29.92,19,9,0,0.00
2012-8-30,82,63,45,33,28,22,48,29,11,30.15,30.01,14,8,0,0.00
2012-8-31,86,69,52,44,34,26,42,30,12,30.07,29.96,12,6,0,0.00
2012-9-1,82,68,57,55,43,28,80,43,14,30.08,29.92,23,8,0,0.00
2012-9-2,78,64,47,39,19,13,69,21,9,30.11,30.02,15,9,0,0.00
2012-9-3,76,60,42,24,20,17,40,23,11,30.15,30.05,13,7,0,0.00
2012-9-4,65,54,43,40,32,22,74,45,29,30.23,30.09,26,10,0,0.00
2012-9-5,75,59,44,37,32,28,72,41,17,30.21,30.01,15,8,0,0.00
2012-9-6,59,53,43,45,41,36,88,65,52,30.28,30.13,10,6,0,0.00
2012-9-7,75,57,42,42,36,21,89,51,13,30.36,30.28,7,5,0,0.00
2012-9-8,81,65,46,27,22,17,45,23,9,30.36,30.17,14,8,0,0.00
2012-9-9,89,72,54,32,24,17,31,19,7,30.17,29.87,12,7,0,0.00
2012-9-10,80,67,53,35,28,17,42,26,10,30.01,29.85,20,10,0,0.00
2012-9-11,59,49,34,31,18,5,75,37,13,30.24,30.03,23,12,0,0.00
2012-9-12,60,47,33,17,14,6,45,27,16,30.39,30.25,9,6,0,0.00
2012-9-13,73,56,40,27,21,16,40,27,15,30.44,30.34,7,6,0,0.00
2012-9-14,86,65,51,26,15,-4,37,18,3,30.38,30.16,13,8,0,0.00
2012-9-15,76,63,53,28,21,14,37,21,13,30.21,30.15,12,7,0,0.00
2012-9-16,62,54,45,33,30,28,61,41,31,30.31,30.17,14,7,0,0.00
2012-9-17,71,54,37,33,29,26,79,45,19,30.28,30.15,17,7,0,0.00
2012-9-18,83,62,46,31,25,15,52,28,9,30.15,30.01,20,9,0,0.00
2012-9-19,74,57,43,30,26,19,58,34,14,30.29,30.15,8,6,0,0.00
2012-9-20,73,59,46,30,27,24,43,31,20,30.25,30.18,11,8,0,0.00
2012-9-21,76,61,43,32,30,27,57,34,19,30.26,30.21,9,6,0,0.00
2012-9-22,77,62,48,34,29,-100,56,33,18,30.25,30.14,22,13,0,0.00
2012-9-23,76,62,49,33,31,29,51,34,19,30.19,30.15,10,6,0,0.00
2012-9-24,77,59,44,32,30,26,59,38,16,30.15,30.03,6,5,0,0.00
2012-9-25,74,58,45,32,30,29,55,37,19,30.09,30.03,7,5,0,0.00
2012-9-26,63,54,47,46,42,31,89,65,44,30.21,30.09,14,7,0,0.00
2012-9-27,70,54,38,44,40,37,96,62,31,30.24,30.15,9,5,0,0.00
2012-9-28,76,58,47,40,36,31,75,48,19,30.17,30.01,7,5,0,0.00
2012-9-29,75,59,49,34,32,29,51,37,22,30.18,30.03,14,8,0,0.00
2012-9-30,68,56,44,38,36,32,72,47,32,30.37,30.18,17,9,0,0.00
2012-10-1,77,60,43,39,31,24,85,43,14,30.37,29.98,12,7,0,0.00
2012-10-2,70,62,42,39,31,24,87,33,17,30.02,29.87,21,11,0,0.00
2012-10-3,43,34,31,40,34,31,100,99,89,30.47,30.03,17,12,0,0.00
2012-10-4,40,34,31,32,30,27,100,88,66,30.46,30.36,9,5,0,0.00
2012-10-5,37,31,23,30,27,22,96,84,56,30.43,30.36,13,6,0,0.00
2012-10-6,48,34,20,35,23,13,91,69,27,30.40,30.21,18,10,0,0.00
2012-10-7,61,46,32,35,29,22,94,59,22,30.20,29.99,19,9,0,0.00
2012-10-8,47,39,32,41,35,30,100,88,50,30.14,29.99,13,8,0,0.00
2012-10-9,53,41,32,34,30,25,100,68,33,30.17,30.09,14,7,0,0.00
2012-10-10,62,45,33,38,33,28,99,66,27,30.18,29.99,18,11,0,0.00
2012-10-11,40,34,29,36,32,29,100,94,77,30.26,30.02,23,14,0,0.00
2012-10-12,72,56,33,34,24,12,96,40,10,30.00,29.81,17,10,0,0.00
2012-10-13,60,54,47,39,34,24,60,48,30,30.14,29.89,18,10,0,0.00
2012-10-14,65,56,42,37,33,29,72,45,29,30.18,29.97,18,9,0,0.00
2012-10-15,60,54,46,47,38,31,79,54,35,29.96,29.88,18,8,0,0.00
2012-10-16,59,52,41,48,32,18,89,49,27,29.84,29.54,30,17,0,0.00
2012-10-17,45,40,32,23,18,13,60,43,29,30.17,29.84,28,17,0,0.00
2012-10-18,57,41,25,26,20,16,74,45,20,30.23,30.06,13,6,0,0.00
2012-10-19,64,56,46,34,28,24,49,35,26,30.04,29.74,24,11,0,0.00
2012-10-20,57,49,36,36,27,12,64,43,28,29.89,29.68,20,12,0,0.00
2012-10-21,47,38,28,27,19,10,68,48,32,29.98,29.88,15,7,0,0.00
2012-10-22,42,34,27,35,30,25,100,87,63,29.95,29.72,9,4,0,0.00
2012-10-23,29,24,21,26,23,21,99,93,85,30.02,29.74,14,10,0,0.00
2012-10-24,26,21,16,23,20,16,99,93,82,30.22,30.03,8,4,0,0.00
2012-10-25,22,20,18,19,18,16,96,91,83,30.40,30.23,8,6,0,0.00
2012-10-26,36,25,14,25,20,14,99,82,52,30.39,30.13,9,4,0,0.00
2012-10-27,32,28,21,30,26,20,99,93,83,30.11,30.02,9,5,0,0.00
2012-10-28,54,43,29,40,35,29,97,75,51,30.01,29.89,19,8,0,0.00
2012-10-29,63,51,41,43,38,33,90,64,38,30.05,29.93,16,8,0,0.00
2012-10-30,64,50,38,34,31,26,77,50,24,30.10,30.02,11,7,0,0.00
2012-10-31,52,45,32,39,36,32,100,72,52,30.11,29.96,18,6,0,0.00
2012-11-1,56,46,37,39,35,28,92,67,35,29.98,29.87,10,5,0,0.00
2012-11-2,51,42,32,37,33,28,89,71,43,30.16,30.00,14,6,0,0.00
2012-11-3,57,43,30,37,28,24,85,60,30,30.15,30.08,11,6,0,0.00
2012-11-4,55,49,43,38,36,33,75,61,49,30.28,30.08,21,10,0,0.00
2012-11-5,63,54,37,39,35,31,79,50,31,30.22,30.06,25,13,0,0.00
2012-11-6,59,48,32,36,32,28,88,56,36,30.23,29.98,9,5,0,0.00
2012-11-7,64,51,34,38,28,17,54,42,26,30.05,29.80,20,10,0,0.00
2012-11-8,28,26,25,26,26,25,100,99,89,30.10,29.89,15,9,0,0.00
2012-11-9,25,18,11,25,16,8,100,93,82,29.93,29.81,22,16,0,0.00
2012-11-10,9,5,1,7,1,-3,90,85,77,30.01,29.93,20,13,0,0.00
2012-11-11,24,12,-1,11,4,-5,86,71,56,30.08,29.96,10,6,0,0.00
2012-11-12,37,29,21,28,20,12,75,68,62,30.13,30.09,15,9,0,0.00
2012-11-13,42,36,31,27,24,21,75,63,44,30.19,30.10,16,9,0,0.00
2012-11-14,40,34,27,30,23,-100,96,71,54,30.24,30.06,19,10,0,0.00
2012-11-15,41,32,24,28,22,19,94,66,48,30.23,30.05,10,7,0,0.00
2012-11-16,44,40,36,34,28,21,80,62,49,30.02,29.98,11,8,0,0.00
2012-11-17,44,40,37,33,31,29,77,70,59,30.03,29.83,14,9,0,0.00
2012-11-18,48,40,29,34,26,18,77,60,32,30.04,29.74,14,8,0,0.00
2012-11-19,51,42,30,30,25,19,73,51,38,30.04,29.87,18,9,0,0.00
2012-11-20,56,51,45,34,31,29,57,46,37,29.95,29.87,12,9,0,0.00
2012-11-21,48,40,31,38,31,17,94,72,50,29.96,29.76,20,9,0,0.00
2012-11-22,34,24,16,23,17,13,99,80,41,30.42,29.98,21,8,0,0.00
2012-11-23,52,39,22,24,19,14,74,45,32,30.37,30.02,13,8,0,0.00
2012-11-24,47,39,26,31,26,19,100,66,33,30.08,29.97,22,11,0,0.00
2012-11-25,32,27,17,29,26,17,100,94,81,30.22,30.01,8,4,0,0.00
2012-11-26,23,18,12,17,14,10,97,85,77,30.23,30.13,6,5,0,0.00
2012-11-27,38,30,20,21,14,4,74,52,38,30.15,30.05,6,3,0,0.00
2012-11-28,52,42,36,28,23,19,62,47,30,30.05,29.88,7,5,0,0.00
2012-11-29,52,46,38,32,28,21,69,51,36,29.93,29.87,16,8,0,0.00
2012-11-30,51,46,40,36,31,26,77,57,39,29.86,29.68,13,8,0,0.00
2012-12-1,54,44,38,33,30,22,75,59,30,29.81,29.76,15,7,0,0.00
2012-12-2,57,44,32,36,30,21,81,60,38,29.76,29.37,25,14,0,0.00
2012-12-3,45,39,32,19,17,15,57,42,29,30.09,29.74,25,16,0,0.00
2012-12-4,50,42,29,32,24,18,68,50,40,30.11,29.90,14,10,0,0.00
2012-12-5,52,43,25,35,24,9,58,47,24,30.06,29.74,29,14,0,0.00
2012-12-6,35,27,20,18,10,-100,80,56,37,30.05,29.92,13,4,0,0.00
2012-12-7,36,29,22,24,17,6,83,63,28,29.91,29.65,16,9,0,0.00
2012-12-8,29,19,-3,24,15,-6,94,85,61,30.18,29.64,26,16,0,0.00
2012-12-9,24,11,-4,13,3,-8,88,70,46,30.22,29.87,12,8,0,0.00
2012-12-10,30,24,15,19,14,10,79,65,53,29.95,29.91,15,10,0,0.00
2012-12-11,40,32,21,25,21,14,74,63,48,29.87,29.57,20,10,0,0.00
2012-12-12,35,31,25,33,28,25,100,90,71,29.88,29.62,8,4,0,0.00
2012-12-13,36,28,18,25,20,12,100,73,58,29.89,29.77,8,5,0,0.00
2012-12-14,42,31,23,28,22,16,87,69,47,29.80,29.70,8,5,0,0.00
2012-12-15,33,23,17,18,15,12,84,72,44,29.84,29.66,8,5,0,0.00
2012-12-16,34,27,21,18,13,8,73,56,39,29.72,29.62,19,10,0,0.00
2012-12-17,40,32,20,27,17,8,68,54,40,29.58,29.41,17,12,0,0.00
2012-12-18,28,23,11,12,8,6,81,55,40,29.85,29.59,23,15,0,0.00
2012-12-19,27,19,9,6,3,0,80,51,32,29.99,29.86,17,9,0,0.00
2012-12-20,40,33,26,13,10,5,42,37,31,29.97,29.93,21,13,0,0.00
2012-12-21,45,37,20,20,11,7,81,36,22,29.99,29.94,11,7,0,0.00
2012-12-22,14,11,9,13,10,7,97,95,94,30.04,29.87,6,4,0,0.00
2012-12-23,25,11,5,21,9,3,96,90,68,29.97,29.88,6,4,0,0.00
2012-12-24,3,-1,-3,1,-3,-5,91,88,87,30.23,29.91,9,6,0,0.00
2012-12-25,15,0,-11,9,-4,-14,89,86,76,30.22,29.92,11,5,0,0.00
2012-12-26,16,8,2,9,4,-1,91,84,73,29.88,29.79,14,5,0,0.00
2012-12-27,26,14,5,14,10,3,91,82,60,29.92,29.85,6,4,0,0.00
2012-12-28,30,21,13,19,14,6,85,72,51,30.02,29.92,7,5,0,0.00
2012-12-29,30,23,14,16,12,7,74,64,53,30.01,29.95,10,6,0,0.00
2012-12-30,25,19,8,21,15,4,94,84,74,30.07,29.99,14,7,0,0.00
2012-12-31,29,22,11,22,13,6,80,69,54,30.09,30.00,16,8,0,0.00
2013-1-1,33,26,16,24,19,10,95,75,63,30.24,30.05,26,13,0,0.00